Temp
-16 -16 -16 -17 -17 -17 -17 -18 -18 -18 -19 -19 -19 -20 -20 -20 -20 -20 -21 -21 -22 -23 -23 -23 -21 -18 -17 -16 -16 -15 -16 -13
-16 -16 -17 -17 -17 -17 -18 -18 -18 -19 -19 -19 -19 -20 -20 -21 -21 -21 -21 -22 -22 -23 -24 -23 -23 -21 -20 -17 -16 -15 -14 -13
-16 -17 -17 -17 -17 -17 -18 -18 -18 -19 -19 -19 -20 -20 -21 -22 -22 -22 -22 -22 -24 -24 -24 -24 -23 -22 -21 -20 -17 -16 -15 -16
-17 -17 -17 -18 -17 -18 -18 -19 -19 -18 -19 -20 -20 -21 -22 -22 -23 -23 -23 -23 -25 -25 -25 -24 -23 -23 -22 -22 -20 -17 -16 -15
-17 -17 -18 -18 -18 -18 -19 -19 -18 -19 -19 -20 -21 -21 -23 -23 -23 -24 -25 -26 -26 -26 -26 -25 -24 -23 -23 -22 -21 -19 -17 -16
-17 -18 -18 -17 -18 -18 -19 -19 -18 -19 -19 -21 -21 -22 -24 -24 -24 -27 -28 -28 -27 -26 -26 -25 -24 -23 -23 -22 -22 -21 -18 -17
-18 -18 -18 -18 -18 -19 -19 -19 -18 -19 -20 -21 -22 -23 -24 -25 -26 -28 -29 -28 -27 -26 -26 -25 -24 -23 -23 -22 -22 -21 -20 -18
-18 -18 -18 -18 -19 -19 -19 -18 -18 -20 -21 -22 -22 -24 -25 -25 -27 -29 -29 -28 -27 -27 -26 -25 -24 -24 -23 -22 -22 -22 -21 -19
-18 -18 -18 -18 -19 -19 -18 -18 -19 -20 -21 -22 -23 -24 -25 -25 -28 -29 -29 -28 -28 -27 -26 -25 -24 -23 -23 -22 -22 -22 -21 -20
-18 -18 -18 -19 -19 -18 -17 -18 -19 -21 -22 -23 -23 -24 -25 -25 -27 -29 -29 -28 -28 -27 -26 -26 -25 -24 -23 -22 -22 -22 -21 -21
-18 -18 -18 -19 -19 -17 -18 -18 -20 -21 -22 -23 -23 -24 -25 -26 -27 -29 -28 -28 -28 -27 -26 -26 -25 -24 -23 -23 -22 -22 -21 -21
-18 -18 -19 -19 -18 -17 -18 -19 -20 -21 -22 -23 -23 -24 -25 -26 -26 -28 -28 -28 -28 -27 -27 -26 -25 -24 -23 -23 -22 -22 -21 -21
-18 -18 -18 -18 -17 -17 -18 -20 -20 -22 -22 -23 -24 -24 -25 -26 -26 -27 -28 -28 -28 -27 -27 -26 -25 -24 -24 -23 -22 -22 -21 -21
-18 -18 -18 -18 -17 -18 -19 -20 -21 -22 -22 -23 -24 -24 -25 -26 -26 -27 -28 -28 -28 -27 -27 -26 -25 -25 -24 -23 -22 -22 -21 -21
-18 -18 -18 -17 -17 -18 -19 -20 -21 -21 -22 -23 -23 -24 -25 -26 -26 -27 -28 -28 -28 -27 -27 -26 -26 -25 -24 -23 -22 -22 -21 -21
-18 -18 -17 -17 -17 -18 -19 -20 -21 -21 -22 -23 -23 -24 -25 -26 -26 -27 -28 -29 -28 -28 -27 -26 -26 -25 -25 -24 -23 -22 -21 -21
-18 -17 -17 -17 -18 -19 -20 -20 -21 -21 -22 -23 -23 -24 -25 -26 -26 -27 -28 -29 -29 -28 -28 -27 -26 -26 -25 -25 -24 -23 -21 -21
-18 -17 -17 -17 -18 -19 -20 -20 -20 -21 -22 -22 -23 -24 -25 -25 -26 -27 -28 -29 -29 -29 -28 -27 -26 -26 -26 -25 -25 -23 -22 -21
-17 -17 -17 -17 -18 -19 -19 -20 -20 -21 -22 -22 -23 -24 -24 -25 -26 -27 -28 -29 -30 -29 -29 -28 -27 -26 -26 -25 -25 -24 -23 -21
Height
5777 5769 5761 5753 5746 5738 5729 5719 5711 5701 5691 5681 5670 5660 5649 5638 5627 5618 5610 5603 5598 5597 5598 5600 5605 5610 5615 5629 5641 5654 5663 5675
5771 5763 5757 5749 5742 5733 5723 5715 5705 5696 5686 5676 5665 5652 5640 5627 5615 5604 5596 5588 5582 5582 5584 5588 5590 5594 5600 5612 5622 5633 5650 5660
5766 5760 5753 5746 5738 5728 5718 5709 5700 5689 5678 5666 5653 5639 5625 5610 5598 5587 5578 5572 5566 5566 5570 5575 5578 5581 5586 5595 5607 5619 5630 5642
5763 5757 5749 5741 5732 5723 5715 5705 5694 5682 5670 5657 5643 5628 5612 5598 5584 5569 5557 5551 5551 5553 5557 5562 5567 5571 5574 5582 5593 5604 5616 5628
5759 5752 5745 5737 5727 5719 5710 5700 5688 5675 5661 5646 5630 5613 5598 5583 5568 5552 5540 5535 5537 5542 5546 5551 5557 5562 5566 5570 5579 5590 5602 5614
5756 5749 5741 5732 5724 5715 5705 5695 5681 5667 5652 5636 5620 5603 5585 5568 5552 5536 5528 5526 5527 5532 5537 5542 5547 5552 5558 5562 5569 5576 5587 5601
5752 5745 5737 5729 5720 5711 5701 5689 5675 5660 5645 5629 5611 5594 5577 5560 5542 5531 5525 5522 5522 5525 5529 5534 5538 5543 5550 5555 5560 5567 5575 5587
5749 5742 5735 5725 5717 5707 5696 5683 5669 5655 5639 5623 5606 5589 5572 5554 5536 5529 5524 5520 5518 5520 5523 5527 5531 5536 5541 5548 5554 5559 5566 5576
5747 5740 5731 5722 5714 5703 5691 5678 5665 5651 5634 5618 5602 5584 5567 5551 5535 5528 5523 5519 5517 5517 5519 5522 5525 5530 5534 5541 5547 5553 5560 5567
5744 5736 5728 5719 5711 5700 5688 5675 5661 5647 5631 5616 5599 5582 5566 5550 5535 5528 5523 5518 5516 5514 5515 5517 5520 5524 5528 5534 5540 5546 5553 5559
5740 5733 5724 5716 5707 5696 5685 5671 5658 5644 5629 5614 5598 5582 5566 5550 5536 5527 5522 5517 5514 5512 5512 5514 5516 5519 5523 5527 5534 5539 5545 5552
5736 5729 5722 5714 5704 5693 5681 5668 5655 5642 5627 5612 5597 5581 5566 5551 5537 5526 5521 5516 5513 5510 5510 5510 5511 5514 5517 5521 5526 5533 5539 5544
5733 5726 5719 5711 5701 5690 5678 5666 5653 5640 5625 5611 5597 5581 5566 5552 5539 5526 5519 5515 5511 5508 5507 5506 5507 5508 5511 5514 5519 5524 5530 5536
5731 5724 5717 5709 5698 5688 5677 5665 5652 5639 5624 5610 5596 5581 5567 5554 5541 5527 5517 5513 5509 5506 5504 5503 5502 5503 5505 5508 5512 5517 5522 5528
5728 5722 5715 5705 5696 5686 5675 5663 5651 5638 5624 5610 5595 5582 5568 5554 5541 5528 5516 5510 5506 5504 5501 5500 5498 5499 5500 5502 5506 5510 5515 5521
5726 5721 5712 5703 5694 5684 5673 5662 5651 5637 5624 5610 5595 5582 5568 5553 5540 5528 5515 5507 5504 5501 5498 5497 5496 5495 5495 5497 5499 5503 5508 5513
5725 5718 5710 5701 5692 5682 5673 5662 5650 5637 5624 5611 5596 5582 5568 5554 5540 5528 5515 5505 5500 5498 5495 5494 5493 5492 5492 5492 5494 5497 5501 5506
5722 5714 5708 5699 5690 5681 5672 5661 5649 5637 5624 5611 5597 5584 5569 5556 5542 5528 5515 5504 5498 5496 5493 5491 5490 5490 5489 5489 5490 5491 5494 5499
5718 5712 5706 5698 5689 5680 5672 5661 5649 5637 5624 5611 5599 5585 5570 5557 5542 5528 5515 5503 5496 5493 5491 5489 5487 5487 5487 5486 5486 5487 5490 5494
Wind_Speed
30 35 40 43 47 50 49 49 50 52 53 55 56 57 57 56 53 52 46 46 41 42 41 41 54 76 79 77 79 78 70 64
35 39 42 44 47 49 48 49 51 52 55 57 55 55 56 56 54 53 48 50 42 41 43 38 40 53 61 71 76 75 74 54
37 40 43 44 47 48 47 49 50 54 58 58 57 60 61 60 57 55 54 51 40 39 42 39 37 40 48 49 71 76 74 81
37 40 41 42 47 47 47 49 52 58 61 62 60 62 64 62 59 61 59 46 34 35 36 36 37 36 39 37 53 70 75 76
38 40 41 44 46 47 49 51 57 63 65 66 65 67 69 66 62 61 45 36 32 30 31 35 37 37 37 35 36 54 68 72
38 39 40 44 46 48 50 54 62 66 69 67 67 70 72 72 67 46 31 26 27 29 28 29 33 32 36 37 33 38 52 66
37 39 41 44 46 48 51 57 66 68 67 68 69 72 73 74 60 35 24 22 21 25 26 29 30 32 34 37 35 34 41 55
36 40 42 43 46 49 53 63 68 67 67 68 70 71 72 74 53 29 21 20 19 21 23 26 30 31 31 35 36 33 37 44
36 39 41 43 46 49 57 65 66 65 66 67 69 70 71 73 49 28 23 17 16 19 22 23 26 30 33 32 34 37 32 41
36 39 41 43 46 50 59 64 64 64 64 66 68 69 70 71 52 27 24 19 15 17 21 23 25 28 32 35 38 36 36 37
34 37 41 43 46 52 59 63 63 63 63 65 66 67 68 69 59 30 24 20 16 15 18 22 23 25 31 34 36 38 40 38
33 36 40 42 45 53 59 60 61 62 62 64 65 66 66 65 64 36 25 22 18 15 15 19 22 24 29 33 36 36 43 42
32 35 38 41 46 53 57 58 60 61 62 63 64 65 65 62 65 47 25 21 18 15 14 16 19 23 27 32 36 37 42 45
32 36 38 41 47 52 56 57 58 60 61 62 63 63 64 62 62 58 29 21 18 15 15 15 17 20 24 29 33 35 37 43
33 35 37 41 48 51 54 55 57 59 60 62 63 63 63 62 61 62 43 22 19 15 14 15 15 16 21 26 32 36 34 37
32 34 36 42 47 51 53 54 55 59 60 61 62 63 62 62 61 63 52 26 18 16 12 13 13 14 16 21 27 35 37 34
32 33 37 42 46 50 52 53 56 58 60 60 61 62 62 62 62 62 58 33 18 17 15 12 11 12 13 17 21 30 38 37
31 33 37 42 46 49 51 54 56 57 59 60 60 61 62 61 62 62 63 39 20 16 15 14 11 10 10 12 15 22 32 35
30 33 37 41 45 48 51 53 55 56 57 58 58 60 61 62 63 64 65 45 23 14 13 14 13 11 8 8 10 16 25 31
Wind_Direction
339 343 344 343 344 344 346 346 347 346 344 344 338 330 324 317 311 309 306 305 285 264 260 251 242 238 238 234 233 232 233 233
342 345 342 341 344 345 348 348 349 346 344 342 337 333 324 319 311 308 306 307 284 259 253 254 246 240 242 233 232 232 228 224
344 341 340 341 343 348 348 347 346 343 341 338 335 333 327 322 319 315 308 307 277 256 247 247 247 242 240 238 228 228 230 225
341 340 341 342 346 347 344 343 344 342 342 341 337 333 329 327 323 320 315 300 266 253 241 241 241 241 236 235 233 226 226 228
341 343 343 343 347 344 342 344 345 345 344 342 339 336 334 333 329 325 309 284 265 250 238 236 237 237 236 232 231 231 225 224
343 345 344 346 346 341 341 345 347 348 346 343 341 339 338 339 338 327 309 285 261 251 245 233 233 234 233 229 228 226 228 223
344 346 345 346 343 339 342 348 351 349 347 345 343 341 342 344 340 333 318 298 269 249 246 235 232 233 228 228 227 224 220 225
343 347 343 346 340 338 346 351 352 350 348 347 345 344 346 350 344 339 329 307 280 255 246 240 230 231 228 227 225 224 221 217
343 343 343 343 338 340 350 350 352 351 349 348 347 346 348 353 348 342 337 317 287 263 247 245 234 227 229 226 231 225 219 215
340 340 342 340 339 347 350 351 352 351 349 349 349 348 350 355 353 344 341 331 305 272 252 246 238 228 228 225 228 227 222 216
336 337 340 339 341 350 350 352 352 352 349 351 350 349 352 355 357 347 344 337 319 289 263 250 243 233 228 226 221 228 225 219
335 338 338 338 347 350 351 352 352 352 350 352 352 352 353 355 360 348 340 339 328 304 279 261 248 238 231 225 224 223 225 222
335 337 338 341 349 351 352 352 353 352 351 353 353 353 354 354 358 355 337 335 331 315 297 277 258 245 238 230 226 221 222 222
336 338 338 345 350 351 352 353 353 352 352 353 354 355 354 354 357 0 342 332 334 321 311 295 274 254 244 236 227 223 219 226
338 337 340 348 350 352 352 354 353 353 353 354 355 356 354 354 357 0 354 332 331 327 311 306 295 263 251 243 232 227 220 223
335 338 345 349 351 352 353 354 353 354 355 355 356 357 355 356 357 359 358 340 330 330 312 303 303 284 265 251 242 229 225 221
335 341 352 350 351 352 354 355 355 355 356 357 357 357 357 357 356 358 2 351 333 334 327 311 305 294 270 263 253 239 228 228
337 349 352 350 351 352 356 356 356 356 357 358 358 358 358 358 357 359 3 357 339 334 331 323 313 305 277 265 258 249 237 227
345 351 351 349 351 353 357 357 358 358 359 359 358 359 359 0 359 0 2 1 350 331 332 326 320 317 300 275 269 259 247 236